EN

Hourly Weather Alseno

Today, 21 January, Thursday

Time Temperature Precipitation Wind Pressure Humidity
00:00 +3°C° 0 mm 0 mps 752 mmHg 96%
01:00 +4°C° 0 mm 1 mps 752 mmHg 96%
02:00 +3°C° 0 mm 0 mps 752 mmHg 96%
03:00 +3°C° 0 mm 0 mps 751 mmHg 96%
04:00 +3°C° 0 mm 0 mps 751 mmHg 96%
05:00 +3°C° 0 mm 0 mps 751 mmHg 96%
06:00 +3°C° 0 mm 0 mps 751 mmHg 96%
07:00 +3°C° 0 mm 0 mps 751 mmHg 96%
08:00 +3°C° 0.1 mm 0 mps 751 mmHg 96%
09:00 +3°C° 0.1 mm 0 mps 751 mmHg 95%
10:00 +4°C° 0.1 mm 0 mps 751 mmHg 95%
11:00 +4°C° 0.3 mm 0 mps 750 mmHg 94%
12:00 +4°C° 0.3 mm 0 mps 750 mmHg 94%
13:00 +5°C° 0.3 mm 0 mps 749 mmHg 93%
14:00 +5°C° 0.2 mm 0 mps 749 mmHg 94%
15:00 +5°C° 0.2 mm 0 mps 749 mmHg 94%
16:00 +5°C° 0.2 mm 0 mps 749 mmHg 95%
17:00 +6°C° 0.3 mm 1 mps 748 mmHg 95%
18:00 +6°C° 0.3 mm 1 mps 748 mmHg 96%
19:00 +6°C° 0.3 mm 1 mps 748 mmHg 96%
20:00 +5°C° 0.5 mm 2 mps 748 mmHg 96%
21:00 +5°C° 0.5 mm 2 mps 747 mmHg 96%
22:00 +5°C° 0.5 mm 2 mps 747 mmHg 96%
23:00 +5°C° 0.8 mm 2 mps 746 mmHg 97%

Tomorrow, 22 January, Friday

Time Temperature Precipitation Wind Pressure Humidity
00:00 +5°C° 0.8 mm 2 mps 745 mmHg 97%
01:00 +5°C° 0.8 mm 2 mps 745 mmHg 97%
02:00 +5°C° 0.8 mm 2 mps 744 mmHg 97%
03:00 +5°C° 0.8 mm 2 mps 743 mmHg 97%
04:00 +5°C° 0.8 mm 2 mps 742 mmHg 97%
05:00 +5°C° 0.1 mm 2 mps 742 mmHg 97%
06:00 +6°C° 0.1 mm 1 mps 742 mmHg 98%
07:00 +6°C° 0.1 mm 1 mps 742 mmHg 98%
08:00 +6°C° 0 mm 1 mps 741 mmHg 97%
09:00 +7°C° 0 mm 1 mps 741 mmHg 96%
10:00 +7°C° 0 mm 1 mps 741 mmHg 95%
11:00 +7°C° 0.3 mm 1 mps 741 mmHg 96%
12:00 +7°C° 0.3 mm 1 mps 740 mmHg 96%
13:00 +7°C° 0.3 mm 1 mps 740 mmHg 97%
14:00 +7°C° 1.8 mm 2 mps 738 mmHg 97%
15:00 +7°C° 1.8 mm 2 mps 737 mmHg 96%
16:00 +7°C° 1.8 mm 3 mps 736 mmHg 96%
17:00 +7°C° 2 mm 3 mps 735 mmHg 97%
18:00 +7°C° 2 mm 2 mps 734 mmHg 97%
19:00 +7°C° 2 mm 2 mps 733 mmHg 97%
20:00 +7°C° 0.6 mm 2 mps 732 mmHg 97%
21:00 +7°C° 0.6 mm 2 mps 731 mmHg 97%
22:00 +7°C° 0.6 mm 2 mps 731 mmHg 97%
23:00 +7°C° 1.2 mm 2 mps 731 mmHg 96%

Day after tomorrow, 23 January, Saturday

Time Temperature Precipitation Wind Pressure Humidity
00:00 +7°C° 1.2 mm 2 mps 730 mmHg 96%
01:00 +7°C° 1.2 mm 2 mps 730 mmHg 96%
02:00 +7°C° 1.2 mm 2 mps 730 mmHg 96%
03:00 +6°C° 1.2 mm 2 mps 730 mmHg 96%
04:00 +6°C° 1.2 mm 2 mps 730 mmHg 96%
05:00 +5°C° 1.1 mm 3 mps 730 mmHg 95%
06:00 +5°C° 1.1 mm 4 mps 731 mmHg 95%
07:00 +5°C° 1.1 mm 5 mps 731 mmHg 94%
08:00 +5°C° 0.5 mm 4 mps 732 mmHg 90%
09:00 +4°C° 0.5 mm 4 mps 732 mmHg 86%
10:00 +4°C° 0.5 mm 4 mps 733 mmHg 82%
11:00 +5°C° 0.3 mm 3 mps 733 mmHg 81%
12:00 +5°C° 0.3 mm 3 mps 733 mmHg 79%
13:00 +7°C° 0.3 mm 3 mps 733 mmHg 78%
14:00 +7°C° 0 mm 2 mps 733 mmHg 78%
15:00 +7°C° 0 mm 2 mps 733 mmHg 79%
16:00 +8°C° 0 mm 1 mps 733 mmHg 79%
17:00 +7°C° 0 mm 1 mps 733 mmHg 81%
18:00 +6°C° 0 mm 1 mps 734 mmHg 82%
19:00 +5°C° 0 mm 1 mps 734 mmHg 83%
20:00 +5°C° 0 mm 1 mps 734 mmHg 85%
21:00 +4°C° 0 mm 1 mps 734 mmHg 86%
22:00 +4°C° 0 mm 1 mps 734 mmHg 87%
23:00 +3°C° 0 mm 0 mps 735 mmHg 88%

24 January, Sunday

Time Temperature Precipitation Wind Pressure Humidity
00:00 +2°C° 0 mm 0 mps 735 mmHg 88%
01:00 +2°C° 0 mm 0 mps 735 mmHg 89%
02:00 +2°C° 0 mm 0 mps 735 mmHg 90%
03:00 +2°C° 0 mm 0 mps 735 mmHg 90%
04:00 +1°C° 0 mm 0 mps 735 mmHg 91%
05:00 +1°C° 0 mm 0 mps 736 mmHg 90%
06:00 +2°C° 0 mm 1 mps 736 mmHg 90%
07:00 +2°C° 0 mm 1 mps 737 mmHg 90%
08:00 +3°C° 0 mm 1 mps 737 mmHg 88%
09:00 +3°C° 0 mm 0 mps 737 mmHg 86%
10:00 +3°C° 0 mm 0 mps 738 mmHg 84%
11:00 +5°C° 0 mm 1 mps 738 mmHg 82%
12:00 +6°C° 0 mm 1 mps 738 mmHg 79%
13:00 +7°C° 0 mm 1 mps 738 mmHg 77%
14:00 +6°C° 0 mm 1 mps 738 mmHg 78%
15:00 +6°C° 0 mm 1 mps 738 mmHg 78%
16:00 +5°C° 0 mm 0 mps 738 mmHg 79%
17:00 +4°C° 0 mm 0 mps 738 mmHg 81%
18:00 +3°C° 0 mm 0 mps 739 mmHg 84%
19:00 +3°C° 0 mm 1 mps 739 mmHg 86%
20:00 +2°C° 0 mm 0 mps 739 mmHg 86%
21:00 +2°C° 0 mm 0 mps 739 mmHg 85%
22:00 +2°C° 0 mm 0 mps 739 mmHg 85%
23:00 +3°C° 0 mm 1 mps 739 mmHg 85%

25 January, Monday

Time Temperature Precipitation Wind Pressure Humidity
00:00 +3°C° 0 mm 1 mps 739 mmHg 86%
01:00 +3°C° 0 mm 1 mps 739 mmHg 86%
02:00 +2°C° 0 mm 1 mps 739 mmHg 86%
03:00 +1°C° 0 mm 2 mps 739 mmHg 85%
04:00 +1°C° 0 mm 2 mps 740 mmHg 85%
05:00 +1°C° 0 mm 2 mps 740 mmHg 82%
06:00 +1°C° 0 mm 2 mps 741 mmHg 80%
07:00 +1°C° 0 mm 2 mps 742 mmHg 77%
08:00 +1°C° 0 mm 3 mps 742 mmHg 73%
09:00 +2°C° 0 mm 3 mps 743 mmHg 69%
10:00 +2°C° 0 mm 3 mps 743 mmHg 65%
11:00 +3°C° 0 mm 4 mps 744 mmHg 60%
12:00 +3°C° 0 mm 5 mps 744 mmHg 55%
13:00 +5°C° 0 mm 5 mps 744 mmHg 50%
14:00 +5°C° 0 mm 4 mps 744 mmHg 52%
15:00 +5°C° 0 mm 4 mps 745 mmHg 55%
16:00 +5°C° 0 mm 3 mps 745 mmHg 57%
17:00 +3°C° 0 mm 3 mps 746 mmHg 58%
18:00 +2°C° 0 mm 3 mps 746 mmHg 59%
19:00 +1°C° 0 mm 3 mps 747 mmHg 60%
20:00 +1°C° 0 mm 3 mps 747 mmHg 60%
21:00 +1°C° 0 mm 3 mps 748 mmHg 59%
22:00 +1°C° 0 mm 3 mps 748 mmHg 59%
23:00 +1°C° 0 mm 3 mps 748 mmHg 60%

26 January, Tuesday

Time Temperature Precipitation Wind Pressure Humidity
00:00 +1°C° 0 mm 3 mps 748 mmHg 61%
01:00 0°C° 0 mm 3 mps 748 mmHg 62%
02:00 0°C° 0 mm 3 mps 749 mmHg 62%
03:00 0°C° 0 mm 3 mps 749 mmHg 62%
04:00 +1°C° 0 mm 2 mps 749 mmHg 61%
05:00 +1°C° 0 mm 2 mps 749 mmHg 61%
06:00 +1°C° 0 mm 2 mps 749 mmHg 61%
07:00 +1°C° 0 mm 2 mps 749 mmHg 61%
08:00 +2°C° 0 mm 2 mps 750 mmHg 61%
09:00 +3°C° 0 mm 2 mps 750 mmHg 61%
10:00 +4°C° 0 mm 2 mps 750 mmHg 60%
11:00 +4°C° 0 mm 2 mps 750 mmHg 58%
12:00 +6°C° 0 mm 1 mps 750 mmHg 56%
13:00 +7°C° 0 mm 1 mps 750 mmHg 55%
14:00 +7°C° 0 mm 1 mps 750 mmHg 59%
15:00 +6°C° 0 mm 1 mps 749 mmHg 63%
16:00 +5°C° 0 mm 0 mps 749 mmHg 67%
17:00 +5°C° 0 mm 1 mps 749 mmHg 69%
18:00 +4°C° 0 mm 1 mps 749 mmHg 71%
19:00 +4°C° 0 mm 1 mps 749 mmHg 73%
20:00 +4°C° 0 mm 1 mps 749 mmHg 74%
21:00 +4°C° 0 mm 1 mps 749 mmHg 75%
22:00 +4°C° 0 mm 1 mps 749 mmHg 76%
23:00 +3°C° 0 mm 1 mps 748 mmHg 77%
Show more